#timestamp,LO_Frequency,Hit,StdDev 
1561532415.7,286047002.6,N
1561532435.5,286047002.4,N
1561532455.3,286047002.4,N
1561532475.2,286047002.4,N
1561532495.9,286046999.7,N
1561532515.7,286047000.1,N
1561532535.6,286047000.0,N
1561532555.4,286047000.5,N
1561532575.3,286047002.3,N
1561532595.1,286047000.1,N
1561532596.0,286047000.1,N
1561532615.8,286047000.9,N
1561532635.7,286047000.4,N
1561532655.5,286047000.2,N
1561532675.4,286047002.3,N
1561532695.2,286047002.3,N
1561532715.0,286046999.7,N
1561532715.9,286046999.7,N
1561532735.8,286047000.2,N
1561532755.6,286047002.4,N
1561532775.4,286047002.6,N
1561532795.3,286047004.0,N
1561532815.1,286047003.9,N
1561532835.9,286047001.5,N
1561532855.7,286047002.3,N
1561532875.5,286047002.8,N
1561532895.4,286046999.9,N
1561532915.2,286047002.3,N
1561532935.0,286047001.0,N
1561532935.9,286047001.0,N
1561532955.8,286047001.2,N
1561532975.6,286047000.9,N
1561532995.5,286046999.5,N
1561533015.3,286047000.1,N
1561533035.1,286047000.1,N
1561533055.9,286047002.6,N
1561533075.7,286047002.0,N
1561533095.5,286047002.5,N
1561533115.4,286047002.7,N
1561533135.2,286047002.0,N
1561533155.1,286047002.2,N
1561533156.0,286047002.2,N
1561533175.8,286047003.6,N
1561533195.6,286047003.7,N
1561533215.5,286047004.1,Y
1561533235.3,286047002.3,P
1561533255.1,286047000.1,N
1561533275.9,286047002.4,N
1561533295.7,286047000.1,N
1561533315.6,286046999.8,N
1561533335.4,286047001.0,N
1561533355.2,286046998.9,N
1561533375.1,286046998.3,N
1561533376.0,286046998.3,N
1561533395.8,286047001.1,N
1561533415.7,286046998.3,N
1561533435.5,286047000.7,N
1561533455.3,286046998.3,N
1561533475.2,286047001.2,N
1561533495.9,286047000.7,N
1561533515.7,286047000.7,N
1561533535.6,286046999.4,N
1561533555.4,286046997.2,N
1561533575.3,286046995.1,Y
1561533595.1,286046993.7,P
1561533596.0,286046993.7,N
1561533615.8,286046995.2,N
1561533635.7,286046996.0,N
1561533655.5,286046996.8,N
1561533675.3,286046996.5,N
1561533695.2,286046998.3,N
1561533715.0,286046998.4,N
1561533715.9,286046998.4,N
1561533735.8,286046999.4,N
1561533755.6,286047000.9,N
1561533775.4,286047000.9,N
1561533795.3,286046999.9,N
1561533815.1,286046999.0,N
1561533835.8,286047001.0,N
1561533855.7,286047001.0,N
1561533875.5,286046998.3,N
1561533895.4,286046999.6,N
1561533915.2,286046996.6,N
1561533935.0,286046997.8,N
1561533935.9,286046997.8,N
1561533955.8,286046997.3,N
1561533975.6,286046995.8,N
1561533995.4,286046995.9,N
1561534015.3,286046993.4,Y
1561534035.1,286046997.8,P
1561534055.9,286046997.8,P
1561534075.7,286046994.9,P
1561534095.5,286046997.4,N
1561534115.4,286046996.6,N
1561534135.2,286046999.4,N
1561534155.0,286046997.2,N
1561534155.9,286046997.2,N
1561534175.8,286046996.5,Y
1561534195.6,286047002.7,P
1561534215.5,286047000.7,N
1561534235.3,286047000.3,N
1561534255.1,286046998.7,N
1561534275.9,286046999.6,N
1561534295.7,286046996.9,N
1561534315.5,286046999.6,N
1561534335.4,286046998.3,N
1561534355.2,286046998.3,N
1561534375.1,286046998.8,N
1561534376.0,286046998.8,N
1561534395.8,286046997.7,N
1561534415.6,286046998.7,N
1561534435.5,286047000.9,N
1561534455.3,286047011.9,Y
1561534475.1,286046998.2,P
1561534495.9,286046998.2,P
1561534515.7,286046999.4,N
1561534535.6,286046996.9,Y
1561534555.4,286046999.4,P
1561534575.2,286046999.1,N
1561534595.1,286046998.6,P
1561534596.0,286046998.6,Y
1561534615.8,286047000.0,P
1561534635.6,286047000.7,N
1561534655.5,286046998.8,N
1561534675.3,286046998.8,N
1561534695.2,286046999.0,N
1561534715.9,286047000.6,N
1561534735.7,286046999.9,N
1561534755.6,286046998.5,N
1561534775.4,286046998.7,N
1561534795.2,286047001.1,N
1561534815.1,286047000.1,N
1561534816.0,286047000.1,N
1561534835.8,286047002.3,N
1561534855.7,286047002.1,N
1561534875.5,286047002.4,N
1561534895.3,286047000.0,N
1561534915.2,286047001.0,N
1561534935.0,286047000.3,N
1561534935.9,286047000.3,N
1561534955.7,286047001.0,N
1561534975.6,286047001.0,N
1561534995.4,286046996.9,N
1561535015.3,286046996.9,N
1561535035.1,286046999.0,N
1561535036.0,286046999.0,N
1561535055.8,286046998.6,N
1561535075.7,286047000.1,N
1561535095.5,286046999.8,N
1561535115.3,286047000.0,N
1561535135.2,286047002.7,N
1561535155.0,286047001.5,N
1561535155.9,286047001.5,N
1561535175.8,286047004.0,N
1561535195.6,286047004.0,N
1561535215.4,286047004.2,N
1561535235.3,286047004.4,N
1561535255.1,286047004.2,N
1561535275.8,286047002.7,N
1561535295.7,286047000.1,N
1561535315.5,286047001.7,N
1561535335.3,286047004.3,N
1561535355.2,286047004.4,N
1561535375.0,286047001.4,N
1561535375.9,286047001.4,N
1561535395.8,286047003.2,N
1561535415.6,286047003.9,N
1561535435.4,286047003.6,N
1561535455.3,286047003.6,N
1561535475.1,286047003.3,N
1561535495.8,286047002.4,N
1561535515.7,286046999.9,N
1561535535.5,286046999.3,N
1561535555.4,286046995.2,N
1561535575.2,286046994.5,N
1561535595.0,286046992.9,N
1561535595.9,286046992.9,N
1561535615.8,286046991.4,N
1561535635.6,286046990.0,N
1561535655.5,286046985.6,Y
1561535675.3,286046985.2,P
1561535695.1,286046981.0,N
1561535715.9,286046981.4,N
1561535735.7,286046979.3,N
1561535755.5,286046979.7,N
1561535775.4,286046978.0,N
1561535795.2,286046976.0,Y
1561535815.1,286046992.3,P
1561535816.0,286046992.3,N
1561535835.8,286046992.8,N
1561535855.6,286046990.1,N
1561535875.5,286046990.2,N
1561535895.3,286046989.7,Y
1561535915.2,286047001.1,P
1561535935.9,286047001.1,N
1561535955.7,286047000.6,N
1561535975.6,286047000.8,N
1561535995.4,286046999.4,N
